Regional Weather Roundup
Issued by NWS Upton, NY

Current Version | Previous Version | Graphics & Text | Print | Product List | Glossary Off
Versions: 1 2 3 4 5 6 7 8 9 10 11 12 13 14 15 16 17 18 19 20 21 22 23 24 25 26 27 28 29 30 31 32 33 34 35 36 37 38 39 40 41 42 43 44 45 46 47 48

000
ASUS41 KOKX 220105
RWROKX

REGIONAL WEATHER ROUNDUP
NATIONAL WEATHER SERVICE NEW YORK NY
800 PM EST SUN DEC 21 2014

NOTE: "FAIR" INDICATES FEW OR NO CLOUDS BELOW 12,000 FEET WITH NO
SIGNIFICANT WEATHER AND/OR OBSTRUCTIONS TO VISIBILITY.

NYZ071-072-176-178-NJZ106-104-220200-
NEW YORK CITY METRO AREA


CITY           SKY/WX    TMP DP  RH WIND       PRES   REMARKS
CENTRAL PARK   NOT AVBL
LAGUARDIA APRT CLOUDY    35  29  78 N7        30.33F WCI  29
KENNEDY INTL   CLOUDY    36  30  79 N8        30.35S WCI  30
NEWARK/LIBERTY NOT AVBL
BRNX BOT. GARD   N/A    N/A N/A N/A NW3       30.35R
TETERBORO      CLOUDY    35  27  72 N3        30.34S
$$

NYZ177-179-078>081-220200-
LONG ISLAND NEW YORK

CITY           SKY/WX    TMP DP  RH WIND       PRES   REMARKS
FARMINGDALE    CLOUDY    36  32  85 N6        30.33S WCI  31
ISLIP          CLOUDY    36  33  89 N10       30.30S WCI  28
SHIRLEY        CLOUDY    36  33  89 N8        30.32S WCI  30
WESTHAMPTON    CLOUDY    37  35  92 N8        30.32S WCI  31
MONTAUK POINT    N/A     39  35  86 NE7       30.31S WCI  34
$$

NYZ052-065-067-220200-
HUDSON VALLEY

CITY           SKY/WX    TMP DP  RH WIND       PRES   REMARKS
WHITE PLAINS   CLOUDY    32  29  88 NW7       30.31S WCI  26
NEWBURGH       CLOUDY    91  28  10 CALM      30.34S
MONTGOMERY     CLOUDY    32  27  81 N6        30.33S WCI  26
POUGHKEEPSIE   CLOUDY    33  26  75 VRB3      30.35S
ALBANY         CLOUDY    31  23  72 CALM      30.37S
$$

NJZ001-105-106-008-010-013-015-019>022-104-220200-
NEW JERSEY

CITY           SKY/WX    TMP DP  RH WIND       PRES   REMARKS
NEWARK/LIBERTY NOT AVBL
TETERBORO      CLOUDY    35  27  72 N3        30.34S
CALDWELL       CLOUDY    34  26  72 NE3       30.34S
MORRISTOWN     CLOUDY    34  28  80 CALM      30.34S
SOMERVILLE     CLOUDY    35  25  66 CALM      30.32S
SUSSEX         CLOUDY    32  26  78 NE5       30.33R WCI  27
ANDOVER          N/A     32  27  81 NE5       30.33R WCI  27
TRENTON        CLOUDY    33  23  66 NW3       30.34R
MILLVILLE      CLEAR     27  21  78 N3        30.33S
ATLANTIC CITY  CLEAR     27  21  78 NW3       30.34S
WRIGHTSTOWN    CLOUDY    32  25  74 NW1       30.32R
TOMS RIVER     CLOUDY    32  27  80 CALM      30.35R
BELMAR         CLOUDY    36  25  64 NW3       30.32F
$$

PAZ047>061-062-071-220200-
EASTERN PENNSYLVANIA

CITY           SKY/WX    TMP DP  RH WIND       PRES   REMARKS
PHILADELPHIA   CLEAR     34  22  61 VRB3      30.36R
ALLENTOWN      CLEAR     28  19  69 NW6       30.34R WCI  22
SCRANTON       CLOUDY    30  20  66 CALM      30.31S
$$

CTZ002-004>006-009-010-012-RIZ004-006-007-MAZ004-011-015-220200-
SOUTHERN NEW ENGLAND
 IN CT

CITY           SKY/WX    TMP DP  RH WIND       PRES   REMARKS
BRADLEY INTL   CLOUDY    34  30  85 N6        30.34R WCI  29
HARTFORD       CLOUDY    34  30  85 VRB5      30.35R WCI  30
DANBURY        CLOUDY    32  28  85 CALM      30.33S FOG
WTRBRY/OXFORD  LGT SNOW  32  25  74 NE6       30.31S FOG     WCI  26
BRIDGEPORT     CLOUDY    35  33  92 N8        30.33S WCI  29
MERIDEN        CLOUDY    34  30  85 N8        30.34R WCI  27
NEW HAVEN      CLOUDY    36  32  85 N10       30.33R WCI  28
CHESTER        CLOUDY    34  32  93 N6        30.32R WCI  29
GROTON         CLOUDY    34  32  92 N10       30.32S WCI  26
WILLIMANTIC    CLOUDY    33  30  88 N5        30.34R WCI  29

 IN RI

CITY           SKY/WX    TMP DP  RH WIND       PRES   REMARKS
PROVIDENCE     CLOUDY    34  29  82 N7        30.34R WCI  28
BLOCK ISLAND   CLOUDY    37  32  81 NE12G20   30.30R WCI  30
WESTERLY       CLOUDY    35  31  85 N7        30.33R WCI  29

 IN MA

CITY           SKY/WX    TMP DP  RH WIND       PRES   REMARKS
BOSTON         CLOUDY    34  26  72 N8        30.35S WCI  27
WORCESTER      CLOUDY    29  27  92 N6        30.30S WCI  23
WESTFIELD      CLOUDY    33  30  88 N5        30.34R WCI  29
PROVINCETOWN   CLOUDY    43  32  65 NE6       30.32S
NANTUCKET      CLOUDY    42  35  76 N3        30.29S
$$

ANZ330-335-338-340-345-350-353-355-220200-
COASTAL MARINE OBSERVATIONS


STATION/POSITION TIME  SKY/WX   TEMP    WIND        PRES    VSBY  WAVE
                                AIR SEA DIR/SP/G                  HT/PER
                 (UTC)          (F)     (DEG/KT/KT) (MB)    (MI)  (FT/S)
NY HARB ENTRANCE 0100            37 47  340/ 10/ 12 1027.3          1/ 5
4S FIRE IS       0100               46                N/A           2/10
20S FIRE ISLAND  0000            40 49              1026.6          2/10
23SW MTP         0100                                 N/A           3/ 4
HUDSON CANYON    0100            41 56  340/  8/ 12 1025.8          2/ 4
EXECUTION ROCKS  0100            35 41  330/  6/  8   N/A
WESTERN LI SOUND 0100            35     350/  6/ 10   N/A           0
CENTRAL LI SOUND 0000            36 44   30/ 12/ 14   N/A           2/ 3
EASTERN LI SOUND NOT AVBL
ROBBINS REEF     0100            35     340/  6/  8 1026.1
$$


>>>>>>>>>>>>>>>>>>>>>>>>>>>> KEY <<<<<<<<<<<<<<<<<<<<<<<<<<<
>                                                          <
>     SKY/WX - SKY CONDITION/PRESENT WEATHER               <
>     TMP    - TEMPERATURE IN FAHRENHEIT                   <
>     DP     - DEWPOINT IN FAHRENHEIT                      <
>     RH     - RELATIVE HUMIDITY IN PERCENT                <
>     WIND   - DIRECTION AND SPEED IN MPH                  <
>     PRES   - MEAN SEA LEVEL PRESSURE IN INCHES OF HG     <
>     WCI    - WIND CHILL INDEX                            <
>     VSB    - VISIBILITY IN MILES                         <
>     HX     - HEAT INDEX                                  <
>     TC     - TEMPERATURE IN CELSIUS                      <
>     VRB    - VARIABLE WIND DIRECTION                     <
>                                                          <
>>>>>>>>>>>>>>>>>>>>>>>>>>>> KEY <<<<<<<<<<<<<<<<<<<<<<<<<<<





USA.gov is the U.S. government's official web portal to all federal, state and local government web resources and services.